Regional Weather Roundup
Issued by NWS

Home | Current Version | Previous Version | Graphics & Text | Print | Product List | Glossary On
Versions: 1 2 3 4 5 6 7 8 9 10 11 12 13 14 15 16 17 18 19 20 21 22 23 24 25 26 27 28 29 30 31 32 33 34 35 36 37 38 39 40 41 42 43 44 45 46 47 48 49 50
000
ASUS43 KMPX 011910
RWRMN
WEATHER ROUNDUP FOR MINNESOTA
NATIONAL WEATHER SERVICE TWIN CITIES/CHANHASSEN MN
200 PM CDT SAT AUG 01 2015


NOTE: "FAIR" INDICATES FEW OR NO CLOUDS BELOW 12,000 FEET WITH NO
SIGNIFICANT WEATHER AND/OR OBSTRUCTIONS TO VISIBILITY. N/A MEANS
CURRENT SKY AND/OR WEATHER CONDITIONS ARE NOT AVAILABLE.

MNZ060>063-068>070-012000-
   Twin Cities Metro

CITY           SKY/WX    TMP DP  RH WIND       PRES   REMARKS
TWIN CITIES    MOSUNNY   84  56  38 NW8       29.92F
ST PAUL        SUNNY     85  55  35 SW8       29.92F
CRYSTAL        SUNNY     84  54  35 W8        29.91F
BLAINE         SUNNY     84  52  32 W8        29.93F
LAKEVILLE      SUNNY     82  61  47 NW3       29.94F
EDEN PRAIRIE   SUNNY     82  57  42 W5        29.92F
SOUTH ST PAUL  SUNNY     83  52  33 W7        29.92F
LAKE ELMO      FAIR      81  54  39 W8        29.94F
$$
MNZ001>005-007-008-013>017-022>024-027-028-012000-
   Northwest Minnesota

CITY           SKY/WX    TMP DP  RH WIND       PRES   REMARKS
BEMIDJI          N/A     79  52  38 W8        29.87F
HALLOCK        SUNNY     81  52  36 W8        29.81F
ROSEAU         SUNNY     79  55  44 SW13      29.83F
WARROAD        SUNNY     79  55  44 W15       29.83F
THIEF RVR FALL SUNNY     79  54  41 SW8       29.85F
CROOKSTON      SUNNY     81  57  44 S6        29.85F
FOSSTON        SUNNY     81  55  41 SW7       29.87F
DETROIT LAKES  MOSUNNY   79  52  38 S7        29.90F
MOORHEAD       MOSUNNY   81  57  44 SE8       29.86F
PARK RAPIDS    PTSUNNY   81  52  36 W7        29.89F
MAHNOMEN       MOCLDY    79  57  48 S9        29.87F
$$
MNZ006-009>011-018-025>026-012000-
   North Central Minnesota

CITY           SKY/WX    TMP DP  RH WIND       PRES   REMARKS
BAUDETTE       MOSUNNY   80  49  33 W12       29.82F
FLAG ISLAND    SUNNY     75  45  33 SW13      29.79F
INTL FALLS     SUNNY     77  51  40 W10       29.82F
WASKISH        SUNNY     79  57  47 SW10      29.86F
BIG FORK       SUNNY     79  48  34 SW6G16    29.87F
LONGVILLE      MOSUNNY   79  52  38 SW3       29.89F
GRAND RAPIDS   MOSUNNY   77  52  41 W12G17    29.89F
CRANE LAKE     PTSUNNY   75  46  35 W8        29.85F
ORR            MOSUNNY   79  43  27 W8G20     29.83F
COOK           MOSUNNY   79  48  34 SW10      29.86F
WALKER         MOCLDY    79  53  40 W8        29.88F
$$
MNZ012-019>021-037-012000-
   Northeast Minnesota

CITY           SKY/WX    TMP DP  RH WIND       PRES   REMARKS
DULUTH         MOSUNNY   79  50  36 NW16      29.89F
ELY            MOSUNNY   75  46  35 W12G17    29.85F
HIBBING        SUNNY     79  47  32 W12       29.88F
EVELETH        SUNNY     77  45  31 W13G22    29.88F
DULUTH HARBOR  MOSUNNY   81  52  36 W13       29.86F
TWO HARBORS    SUNNY     81  55  41 NW6       29.85S
SILVER BAY     MOSUNNY   81  46  30 SW6       29.84S
GRAND MARAIS     N/A     57  48  72 W8        29.81R
G MARAIS ARPRT MOSUNNY   70  46  43 W7        29.85F
$$
MNZ029>031-032-039>041-046>048-054>057-064-012000-
   West Central Minnesota

CITY           SKY/WX    TMP DP  RH WIND       PRES   REMARKS
FERGUS FALLS   MOSUNNY   81  59  47 S8        29.86F
WHEATON        MOSUNNY   79  64  61 SE15      29.87F
MORRIS         MOSUNNY   81  64  57 S10       29.88F
ALEXANDRIA     MOSUNNY   80  54  40 SW8       29.93F
ELBOW LAKE     FAIR      81  58  45 S12       29.88F
WADENA         MOSUNNY   81  52  36 S3        29.90F
GLENWOOD       MOSUNNY   81  57  44 S8        29.93F
APPLETON       MOSUNNY   82  64  54 S9        29.89F HAZE
BENSON         MOSUNNY   82  63  51 S9        29.91F
ORTONVILLE     PTSUNNY   82  66  57 SE9       29.88F
MADISON        PTSUNNY   82  66  57 SE10      29.89F
WILLMAR        FAIR      82  64  54 S3        29.94F
$$
MNZ033>034-036-042>043-049>051-058-059-012000-
   Central Minnesota

CITY           SKY/WX    TMP DP  RH WIND       PRES   REMARKS
ST CLOUD       SUNNY     82  49  31 SW5       29.91F
SAUK CENTRE    FAIR      79  58  48 S5        29.93S
PAYNESVILLE    MOSUNNY   78  56  47 E8        29.93F
AITKIN         SUNNY     79  54  41 SW5       29.89F
PINE RIVER     SUNNY     81  55  41 SW7       29.93F
BRAINERD       SUNNY     81  51  35 W9        29.90F
STAPLES        SUNNY     81  48  32 SW3       29.90F
LITTLE FALLS   SUNNY     81  46  30 W5        29.91F
LITCHFIELD     MOSUNNY   81  63  54 CALM      29.94F
BUFFALO          N/A     81  55  40 CALM      29.94F
MAPLE LAKE     SUNNY     82  59  44 CALM      29.94F
$$
MNZ037-044-045-052-053-012000-
   East Central Minnesota

CITY           SKY/WX    TMP DP  RH WIND       PRES   REMARKS
PRINCETON      SUNNY     84  54  34 W5        29.92F
MORA           SUNNY     79  52  38 SW7       29.93F
CAMBRIDGE      SUNNY     84  61  45 NW12      29.90F
RUSH CITY      SUNNY     81  54  39 W3        29.92F
MOOSE LAKE     SUNNY     79  52  38 W9        29.88F
HINCKLEY       FAIR      79  55  44 W10       29.91F
CLOQUET        SUNNY     79  45  29 W10G24    29.90S
MCGREGOR       SUNNY     79  50  36 SW10      29.91F
$$
MNZ071>073-080-081-089-090-097-098-012000-
   Southwest Minnesota

CITY           SKY/WX    TMP DP  RH WIND       PRES   REMARKS
MONTEVIDEO     SUNNY     84  66  54 S6        29.94F
GRANITE FALLS  SUNNY     82  68  61 SE3       29.94S
CANBY          MOSUNNY   86  64  47 SW9       29.92F
MARSHALL       MOSUNNY   88  61  40 SW13      29.94F
REDWOOD FALLS  MOSUNNY   82  67  60 VRB6      29.93F
OLIVIA         PTSUNNY   77  63  61 S8        29.93F
PIPESTONE      MOSUNNY   81  61  50 SW15G24   29.97F
WINDOM         PTSUNNY   84  61  45 SW13      29.96F
WORTHINGTON    CLOUDY    82  66  57 SW14      29.97F
JACKSON        PTSUNNY   86  64  48 SW15      29.99F
TRACY          MOSUNNY   86  66  51 SW10      29.94F
SLAYTON        PTSUNNY   85  63  47 SW16      29.97F
$$
MNZ065>067-074>077-082>085-091>093-012000-
   South Central Minnesota

CITY           SKY/WX    TMP DP  RH WIND       PRES   REMARKS
MANKATO        MOSUNNY   81  64  57 SE5       29.95S
NEW ULM        MOSUNNY   79  64  61 SW3       29.95S
ST JAMES       MOSUNNY   84  72  65 S5        29.96F
FAIRMONT       MOSUNNY   84  64  51 W10       29.97S
GLENCOE        MOSUNNY   83  64  53 S3        29.93F
FARIBAULT      SUNNY     81  64  57 W3        29.96S
OWATONNA       SUNNY     81  63  54 CALM      29.96S
WASECA         SUNNY     79  63  57 SW5       29.97F
ALBERT LEA     SUNNY     82  64  54 W5        29.97S
$$
MNZ078>079-086>088-094>096-012000-
   Southeast Minnesota

CITY           SKY/WX    TMP DP  RH WIND       PRES   REMARKS
ROCHESTER      SUNNY     81  69  67 NW6       29.97F
RED WING       SUNNY     84  55  37 W6        29.92F
STANTON        SUNNY     82  61  49 CALM      29.93F
DODGE CENTER   SUNNY     79  63  57 W6        29.97F
WINONA         MOSUNNY   81  61  50 W7        29.94F
AUSTIN         SUNNY     82  64  54 NW5       29.97S
PRESTON        SUNNY     80  64  57 NW9       29.98S
$$
ABBREVIATIONS USED IN REMARKS
   TC - TEMPERATURES IN CELSIUS
  WCI - WIND CHILL INDEX
   HX - HEAT INDEX
  VSB - VISIBILITY
$$



USA.gov is the U.S. government's official web portal to all federal, state and local government web resources and services.